This demonstration page uses our WeatherBlox Daily Observations layout. Learn more.

Left ArrowRight Arrow

34.74481, -87.66753

Hourly Observations for February 20, 2020

Temp ( °F °C ) Dew Point ( °F °C ) Humidity (%) Winds ( mph kmh ) Pressure ( in mb ) Visibility ( mi km ) Precip ( " mm )
12:49 am 00:49 Cloudy 48 9 28 -2 46 46 ENE 9 15 30.29 1026 10 16 0.00 0.00
12:53 am 00:53 Cloudy 48 8.9 28 -2.2 46 46 NE 10 17 30.28 1025 10 16 0.00 0.00
1:53 am 01:53 Cloudy 47 8.3 28 -2.2 48 48 NE 9 15 30.25 1024 10 16 0.00 0.00
2:53 am 02:53 Cloudy 47 8.3 29 -1.7 50 50 NE 10 17 30.23 1024 10 16 0.00 0.00
3:53 am 03:53 Cloudy with Light Rain 45 7.2 30 -1.1 56 56 NNE 10 17 30.27 1025 8 13 0.00 0.00
4:51 am 04:51 Cloudy with Light Rain 43 6 34 1 71 71 NNE 8 13 30.32 1027 9 14 0.00 0.00
4:53 am 04:53 Cloudy with Light Rain 43 6.1 33 0.6 68 68 NNE 9 15 30.30 1026 9 14 0.00 0.00
5:53 am 05:53 Cloudy with Light Rain 42 5.6 34 1.1 73 73 NE 8 13 30.31 1026 9 14 0.03 0.76
6:21 am 06:21 Cloudy with Light Rain 42 5.6 35 1.7 76 76 NE 10 17 30.34 1027 6 10 0.01 0.25
6:53 am 06:53 Cloudy with Rain 41 5 34 1.1 76 76 NE 16 26 30.31 1026 7 11 0.03 0.76
7:13 am 07:13 Cloudy with Rain 41 5 35 1.7 79 79 NE 13 20 30.35 1028 5 8 0.01 0.25
7:53 am 07:53 Cloudy with Rain 41 5 35 1.7 79 79 NE 16 26 30.34 1027 5 8 0.04 1.02
8:13 am 08:13 Cloudy with Rain 41 5 36 2.2 82 82 NNE 14 22 30.38 1029 4 6 0.00 0.00
8:35 am 08:35 Cloudy with Rain 40 4.4 36 2.2 86 86 NE 17 28 30.38 1029 7 11 0.00 0.00
8:53 am 08:53 Cloudy with Heavy Rain 39 3.9 35 1.7 86 86 NNE 13 20 30.38 1029 4 6 0.00 0.00
9:36 am 09:36 Cloudy with Light Snow 36 2.2 33 0.6 89 89 NE 13 20 30.40 1030 3 4 0.03 0.76
9:48 am 09:48 Cloudy with Light Snow 36 2 32 0 87 87 NE 12 19 30.41 1030 2 3 0.03 0.76
9:50 am 09:50 Cloudy with Light Snow 36 2 32 0 87 87 NE 12 19 30.41 1030 2 3 0.04 1.02
9:53 am 09:53 Cloudy with Light Snow 36 2.2 32 0 86 86 NE 12 19 30.38 1029 3 4 0.04 1.02
10:04 am 10:04 Cloudy with Rain 36 2.2 33 0.6 89 89 NE 9 15 30.41 1030 4 6 0.00 0.00
10:29 am 10:29 Cloudy with Light Snow 36 2.2 33 0.6 89 89 NE 12 19 30.40 1030 2 3 0.00 0.00
10:38 am 10:38 Cloudy with Light Rain 36 2.2 33 0.6 89 89 NE 10 17 30.41 1030 3 5 0.00 0.00
10:53 am 10:53 Cloudy with Light Rain 36 2.2 33 0.6 89 89 NNE 10 17 30.39 1029 6 10 0.00 0.00
11:53 am 11:53 Cloudy 38 3.3 34 1.1 86 86 NNE 14 22 30.37 1029 10 16 0.05 1.27
12:18 pm 12:18 Cloudy with Light Rain 38 3.3 34 1.1 86 86 NE 13 20 30.39 1029 10 16 0.02 0.51
12:37 pm 12:37 Cloudy with Light Rain 38 3.3 34 1.1 86 86 NE 15 24 30.39 1029 7 11 0.04 1.02
12:53 pm 12:53 Cloudy with Light Rain 38 3.3 34 1.1 86 86 NNE 10 17 30.37 1029 9 14 0.05 1.27
1:53 pm 13:53 Cloudy 39 3.9 34 1.1 82 82 NNE 12 19 30.37 1029 10 16 0.04 1.02
2:48 pm 14:48 Cloudy 39 4 34 1 81 81 NNE 12 19 30.41 1030 10 16 0.02 0.51
2:53 pm 14:53 Cloudy 40 4.4 35 1.7 83 83 N 12 19 30.40 1029 10 16 0.02 0.51
3:53 pm 15:53 Cloudy 40 4.4 34 1.1 79 79 N 10 17 30.40 1030 10 16 0.00 0.00
4:53 pm 16:53 Cloudy 39 3.9 32 0 76 76 NNE 13 20 30.43 1030 10 16 0.00 0.00
5:32 pm 17:32 Cloudy 39 3.9 31 -0.6 73 73 NNE 9 15 30.46 1032 10 16 0.00 0.00
5:53 pm 17:53 Cloudy 39 3.9 31 -0.6 73 73 N 7 11 30.45 1031 10 16 0.00 0.00
6:53 pm 18:53 Cloudy 39 3.9 31 -0.6 73 73 NNE 8 13 30.46 1032 10 16 0.00 0.00
7:53 pm 19:53 Clear 38 3.3 30 -1.1 73 73 N 5 7 30.48 1032 10 16 0.00 0.00
8:53 pm 20:53 Clear 37 2.8 30 -1.1 76 76 N 7 11 30.50 1033 10 16 0.00 0.00
9:53 pm 21:53 Clear 37 2.8 27 -2.8 67 67 N 8 13 30.51 1033 10 16 0.00 0.00
10:53 pm 22:53 Clear 35 1.7 26 -3.3 70 70 N 10 17 30.53 1034 10 16 0.00 0.00
11:53 pm 23:53 Clear 34 1.1 23 -5 64 64 N 13 20 30.53 1034 10 16 0.00 0.00

Powered by AerisWeather